Hurricane Symbol View the latest observations near East Pacific Tropical Storm Bud.

Station FHPF1 - FHP - Fred Howard Park, FL Image indicating link to RSS feed of recent meteorological observations for station FHPF1


Conditions at FHPF1 as of
(6:54 pm EDT)
2254 GMT on 07/24/2024:
Note: This report is more than two hours old
     

Click on the graph icon in the table below to see a time series plot of the last five days of that observation.

5-day plot - Wind Direction Wind Direction (WDIR): S ( 180 deg true )
5-day plot - Wind Speed Wind Speed (WSPD): 7.0 kts
5-day plot - Wind Gust Wind Gust (GST): 8.9 kts
5-day plot - Atmospheric Pressure Atmospheric Pressure (PRES):30.13 in
5-day plot - Air Temperature Air Temperature (ATMP): 87.1 °F
5-day plot - Dew Point Dew Point (DEWP): 75.0 °F
5-day plot - Tide (above MLLW) Tide (above MLLW) (TIDE): 2.72 ft
5-day plot - Heat Index Heat Index (HEAT): 96.6 °F
5-day plot - Wind Speed at 10 Meters Wind Speed at 10 meters (WSPD10M): 7.8 kts
5-day plot - Wind Speed at 20 Meters Wind Speed at 20 meters (WSPD20M): 7.8 kts
5-day plot -  Wind Speed, Wind Gust and Atmospheric Pressure Combined plot of Wind Speed, Gust, and Air Pressure
Previous observations
TIME
(EDT)
5-day plot - Wind Direction
WDIR
 
5-day plot - Wind Speed
WSPD
kts
5-day plot - Wind Gust
GST
kts
5-day plot - Wave Height
WVHT
ft
5-day plot - Dominant Wave Period
DPD
sec
5-day plot - Average Wave Period
APD
sec
5-day plot - Mean Wave Direction
MWD
 
5-day plot - Atmospheric Pressure
PRES
in
5-day plot - Pressure Tendency
PTDY
in
5-day plot - Air Temperature
ATMP
°F
5-day plot - Water Temperature
WTMP
°F
5-day plot - Dew Point
DEWP
°F
5-day plot - Salinity
SAL
psu
5-day plot - Visibility
VIS
nmi
5-day plot - Tide (above MLLW)
TIDE
ft
2024-07-24 06:48 pmSSW 11.1 13.0----30.13- 86.7- 74.5-- 2.79
2024-07-24 06:42 pmSSW 12.0 14.0----30.13- 86.7- 75.4-- 2.89
2024-07-24 06:36 pm S 12.0 14.0----30.14- 86.2- 77.0-- 2.92
2024-07-24 06:30 pm S 13.0 14.0----30.14- 86.2- 77.7-- 3.02
2024-07-24 06:24 pm S 11.1 14.0----30.13- 87.3- 77.2-- 3.05
2024-07-24 06:18 pm SW 8.0 11.1----30.13- 88.9- 77.5-- 3.15
2024-07-24 06:12 pm SW 5.1 8.9----30.12- 89.1- 77.9-- 3.22
2024-07-24 06:06 pmWSW 6.0 8.0----30.12- 89.2- 77.7-- 3.35
2024-07-24 06:00 pmWSW 5.1 8.0----30.13-0.02 89.4- 77.9-- 3.41
2024-07-24 03:54 pm SW 9.9 12.0----30.14- 89.4- 77.7-- 4.59
2024-07-24 03:48 pmSSW 9.9 11.1----30.14- 89.4- 77.5-- 4.63
2024-07-24 03:42 pmSSW 9.9 12.0----30.14- 89.2- 77.4-- 4.66
2024-07-24 03:36 pm SW 9.9 11.1----30.14- 89.4- 77.7-- 4.69
2024-07-24 03:30 pmSSW 8.0 8.9----30.14- 89.4- 77.7-- 4.66
2024-07-24 03:24 pm SW 6.0 8.0----30.15- 89.2- 77.0-- 4.69
2024-07-24 03:18 pm SW 7.0 8.0----30.15- 89.4- 77.4-- 4.66
2024-07-24 03:12 pmSSW 8.0 9.9----30.15- 89.1- 77.2-- 4.69
2024-07-24 03:06 pmSSW 8.0 9.9----30.15- 89.1- 77.5-- 4.69
2024-07-24 03:00 pm SW 8.9 11.1----30.15-0.04 89.4- 77.2-- 4.72
2024-07-24 02:54 pmSSW 7.0 12.0----30.15- 90.1- 76.8-- 4.72
2024-07-24 02:48 pm S 6.0 8.9----30.16- 91.0- 75.9-- 4.76
2024-07-24 02:42 pm SE 8.0 9.9----30.16- 91.6- 73.8-- 4.72
2024-07-24 02:36 pm SE 8.0 9.9----30.16- 91.4- 74.3-- 4.72
2024-07-24 02:30 pmESE 8.9 12.0----30.16- 91.6- 72.7-- 4.72
2024-07-24 02:24 pmESE 9.9 12.0----30.16- 91.4- 73.9-- 4.69
2024-07-24 02:18 pm E 11.1 14.0----30.16- 91.4- 73.6-- 4.69
2024-07-24 02:12 pmESE 9.9 13.0----30.16- 91.2- 74.1-- 4.66
2024-07-24 02:06 pm SE 9.9 12.0----30.16- 90.9- 74.5-- 4.63
2024-07-24 02:00 pm SE 9.9 12.0----30.16-0.03 90.9- 74.7-- 4.59
2024-07-24 01:54 pm SE 8.9 12.0----30.16- 90.5- 75.4-- 4.59
2024-07-24 01:48 pm SE 8.0 11.1----30.17- 90.3- 75.7-- 4.53
2024-07-24 01:42 pm SE 7.0 9.9----30.16- 90.1- 75.4-- 4.49
2024-07-24 01:36 pm SE 7.0 9.9----30.17- 90.0- 74.7-- 4.46
2024-07-24 01:30 pm SE 8.0 9.9----30.17- 90.1- 75.0-- 4.40
2024-07-24 01:24 pm SE 8.0 9.9----30.17- 90.0- 75.0-- 4.36
2024-07-24 01:18 pm SE 7.0 8.9----30.17- 89.8- 76.1-- 4.33
2024-07-24 01:12 pm S 5.1 7.0----30.17- 89.2- 75.9-- 4.27
2024-07-24 01:06 pmSSE 5.1 7.0----30.17- 89.2- 76.1-- 4.27
2024-07-24 01:00 pmSSE 4.1 5.1----30.17-0.02 89.4- 76.3-- 4.20
2024-07-24 12:54 pm SE 4.1 5.1----30.17- 89.4- 76.1-- 4.17
2024-07-24 12:48 pmESE 4.1 6.0----30.17- 89.2- 75.9-- 4.13
2024-07-24 12:42 pmESE 5.1 7.0----30.17- 89.4- 76.6-- 4.07
2024-07-24 12:36 pm SE 5.1 8.0----30.18- 88.9- 76.8-- 4.00
2024-07-24 12:30 pm SE 5.1 7.0----30.18- 88.7- 76.6-- 3.94
2024-07-24 12:24 pmESE 2.9 6.0----30.18- 88.5- 77.0-- 3.87
2024-07-24 12:18 pm SE 4.1 8.9----30.18- 88.2- 77.0-- 3.77
2024-07-24 12:12 pm SE 5.1 7.0----30.18- 88.2- 77.4-- 3.67
2024-07-24 12:06 pm SE 6.0 8.0----30.19- 87.8- 76.8-- 3.61
2024-07-24 12:00 pmESE 6.0 8.0----30.19-0.01 88.2- 76.5-- 3.51
2024-07-24 11:54 am E 6.0 8.9----30.19- 88.7- 75.7-- 3.44
2024-07-24 11:48 am E 8.0 9.9----30.19- 88.3- 75.9-- 3.35
2024-07-24 11:42 am E 8.0 11.1----30.19- 88.3- 76.6-- 3.25
2024-07-24 11:36 am E 6.0 8.9----30.19- 88.3- 77.2-- 3.15
2024-07-24 11:30 am E 8.0 9.9----30.19- 87.6- 76.6-- 3.08
2024-07-24 11:24 amENE 8.0 9.9----30.19- 88.2- 76.5-- 2.99
2024-07-24 11:18 amENE 7.0 9.9----30.19- 88.5- 76.6-- 2.92
2024-07-24 11:12 am E 7.0 11.1----30.19- 87.6- 77.4-- 2.82
2024-07-24 11:06 am E 6.0 8.0----30.19- 87.4- 77.7-- 2.76
2024-07-24 11:00 am E 7.0 9.9----30.19+0.00 87.1- 78.3-- 2.66
2024-07-24 10:54 amENE 8.0 9.9----30.19- 87.1- 78.8-- 2.59
2024-07-24 10:48 am E 8.0 9.9----30.19- 86.0- 78.4-- 2.53
2024-07-24 10:42 am E 8.9 11.1----30.19- 85.6- 78.4-- 2.46
2024-07-24 10:36 am E 9.9 12.0----30.19- 85.3- 78.3-- 2.36
2024-07-24 10:30 am E 9.9 12.0----30.19- 85.1- 78.4-- 2.30
2024-07-24 10:24 am E 8.9 11.1----30.19- 84.9- 78.6-- 2.26
2024-07-24 10:18 am E 8.9 12.0----30.19- 84.7- 78.3-- 2.20
2024-07-24 10:12 amENE 8.9 11.1----30.19- 84.6- 78.4-- 2.17
2024-07-24 10:06 amESE 8.9 8.9----30.19- 84.9- 79.0-- 2.10
2024-07-24 10:00 am E 8.9 11.1----30.19+0.01 84.2- 78.8-- 2.10
2024-07-24 09:54 amENE 9.9 12.0----30.19- 84.4- 79.0-- 2.07
2024-07-24 09:48 amENE 9.9 12.0----30.19- 84.0- 78.8-- 2.03
2024-07-24 09:42 amENE 9.9 12.0----30.19- 83.7- 78.6-- 2.00
2024-07-24 09:36 am E 8.9 11.1----30.19- 83.8- 78.8-- 1.94
2024-07-24 09:30 amENE 8.9 12.0----30.19- 83.5- 78.4-- 1.90
2024-07-24 09:24 am E 8.9 11.1----30.19- 83.1- 78.4-- 1.87
2024-07-24 09:18 amENE 8.9 11.1----30.19- 82.9- 78.1-- 1.84
2024-07-24 09:12 amENE 8.9 9.9----30.19- 82.8- 77.9-- 1.87
2024-07-24 09:06 am E 8.0 9.9----30.20- 83.1- 78.4-- 1.87
2024-07-24 09:00 amENE 7.0 8.9----30.20+0.04 82.4- 77.9-- 1.87
2024-07-24 08:54 amENE 7.0 9.9----30.20- 82.4- 78.1-- 1.90
2024-07-24 08:48 amENE 7.0 9.9----30.20- 82.0- 77.9-- 1.90
2024-07-24 08:42 amENE 8.0 9.9----30.20- 81.3- 77.2-- 1.94
2024-07-24 08:36 amENE 8.9 9.9----30.19- 81.5- 77.2-- 1.97
2024-07-24 08:30 am NE 8.9 11.1----30.19- 81.7- 77.4-- 2.03
2024-07-24 08:24 amENE 8.9 11.1----30.19- 81.7- 77.7-- 2.03
2024-07-24 08:18 amENE 8.9 9.9----30.19- 81.5- 77.5-- 2.03
2024-07-24 08:12 am NE 7.0 11.1----30.19- 81.5- 77.7-- 2.03
2024-07-24 08:06 amENE 7.0 8.9----30.19- 81.1- 77.5-- 2.03
2024-07-24 08:00 am NE 7.0 8.9----30.19+0.02 81.0- 77.5-- 2.03
2024-07-24 07:54 amENE 6.0 8.0----30.18- 80.6- 77.4-- 2.07
2024-07-24 07:48 amENE 7.0 8.9----30.18- 80.4- 77.2-- 2.10
2024-07-24 07:42 amENE 6.0 8.0----30.18- 80.4- 77.2-- 2.13
2024-07-24 07:36 am NE 7.0 8.0----30.18- 80.4- 77.2-- 2.17
2024-07-24 07:30 amENE 6.0 7.0----30.18- 80.2- 77.2-- 2.17
2024-07-24 07:24 am NE 6.0 7.0----30.18- 79.9- 76.8-- 2.23
2024-07-24 07:18 amENE 6.0 7.0----30.17- 79.5- 76.6-- 2.26
2024-07-24 07:12 am NE 7.0 8.0----30.17- 79.5- 76.5-- 2.30
2024-07-24 07:06 am NE 7.0 8.0----30.17- 79.3- 76.5-- 2.36
2024-07-24 07:00 am NE 7.0 8.0----30.17+0.02 79.3- 76.3-- 2.40
2024-07-24 06:54 amENE 6.0 8.0----30.17- 79.3- 76.3-- 2.46
2024-07-24 06:48 am NE 6.0 7.0----30.17- 79.3- 76.3-- 2.53
2024-07-24 06:42 amENE 6.0 7.0----30.17- 79.3- 76.3-- 2.56
2024-07-24 06:36 am NE 5.1 7.0----30.17- 79.5- 76.3-- 2.62
2024-07-24 06:30 am NE 6.0 7.0----30.17- 79.5- 76.3-- 2.66
2024-07-24 06:24 amENE 6.0 7.0----30.16- 79.5- 76.5-- 2.69
2024-07-24 06:18 amENE 5.1 7.0----30.16- 79.5- 76.3-- 2.72
2024-07-24 06:12 amENE 6.0 7.0----30.16- 79.5- 76.3-- 2.76
2024-07-24 06:06 amENE 6.0 8.0----30.16- 79.5- 76.3-- 2.82
2024-07-24 06:00 am NE 7.0 8.0----30.16+0.01 79.5- 76.5-- 2.85
2024-07-24 05:54 amENE 7.0 8.9----30.16- 79.2- 76.1-- 2.92
2024-07-24 05:48 am NE 7.0 8.9----30.16- 79.3- 76.3-- 2.95
2024-07-24 05:42 am NE 8.0 8.0----30.16- 79.3- 76.1-- 3.02
2024-07-24 05:36 amENE 7.0 8.0----30.16- 79.3- 76.3-- 3.08
2024-07-24 05:30 am NE 6.0 8.0----30.16- 79.5- 76.3-- 3.15
2024-07-24 05:24 amENE 6.0 8.0----30.16- 79.5- 76.5-- 3.22
2024-07-24 05:18 amENE 5.1 6.0----30.16- 79.7- 76.5-- 3.25
2024-07-24 05:12 amENE 2.9 5.1----30.16- 79.7- 76.6-- 3.31
2024-07-24 05:06 amENE 4.1 5.1----30.16- 79.7- 76.6-- 3.38
2024-07-24 05:00 amENE 4.1 6.0----30.16-0.01 79.7- 76.6-- 3.38
2024-07-24 04:54 amENE 4.1 5.1----30.16- 79.5- 76.5-- 3.41
2024-07-24 04:48 am E 4.1 6.0----30.16- 79.5- 76.3-- 3.44
2024-07-24 04:42 am E 5.1 6.0----30.16- 79.3- 76.1-- 3.48
2024-07-24 04:36 am E 4.1 5.1----30.16- 79.5- 76.3-- 3.51
2024-07-24 04:30 am E 4.1 5.1----30.16- 79.9- 76.6-- 3.51
2024-07-24 04:24 amENE 4.1 5.1----30.16- 79.7- 76.5-- 3.51
2024-07-24 04:18 amENE 4.1 6.0----30.16- 79.7- 76.5-- 3.48
2024-07-24 04:12 am E 4.1 6.0----30.16- 79.7- 76.3-- 3.54
2024-07-24 04:06 amENE 5.1 6.0----30.16- 79.9- 76.5-- 3.54
2024-07-24 04:00 amENE 6.0 8.0----30.16-0.03 79.9- 76.5-- 3.54
2024-07-24 03:54 amENE 7.0 8.0----30.16- 80.1- 76.6-- 3.54
2024-07-24 03:48 amENE 6.0 8.0----30.16- 80.1- 76.5-- 3.58
2024-07-24 03:42 am E 6.0 8.0----30.15- 80.2- 76.8-- 3.61
2024-07-24 03:36 amENE 5.1 7.0----30.15- 80.2- 76.8-- 3.64
2024-07-24 03:30 amENE 6.0 8.0----30.15- 80.2- 76.6-- 3.64
2024-07-24 03:24 amENE 5.1 7.0----30.15- 80.4- 77.0-- 3.64
2024-07-24 03:18 am E 5.1 7.0----30.15- 80.4- 76.8-- 3.67
2024-07-24 03:12 am E 5.1 6.0----30.15- 80.8- 77.2-- 3.64
2024-07-24 03:06 amENE 5.1 6.0----30.15- 80.6- 77.0-- 3.64
2024-07-24 03:00 am E 5.1 6.0----30.15-0.05 80.4- 77.0-- 3.61
2024-07-24 02:54 am E 6.0 7.0----30.16- 80.4- 77.0-- 3.61
2024-07-24 02:48 am E 6.0 7.0----30.16- 80.4- 77.0-- 3.58
2024-07-24 02:42 am E 6.0 7.0----30.16- 80.2- 76.8-- 3.54
2024-07-24 02:36 amENE 5.1 7.0----30.16- 80.4- 77.4-- 3.51
2024-07-24 02:30 amENE 6.0 7.0----30.16- 80.2- 77.2-- 3.44
2024-07-24 02:24 amENE 5.1 6.0----30.16- 80.4- 77.4-- 3.41
2024-07-24 02:18 am E 4.1 5.1----30.17- 80.4- 77.5-- 3.38
2024-07-24 02:12 amENE 2.9 4.1----30.17- 80.6- 77.9-- 3.35
2024-07-24 02:06 am E 1.9 2.9----30.18- 80.2- 77.5-- 3.31
2024-07-24 02:00 am E 1.9 2.9----30.17-0.03 79.9- 77.4-- 3.28
2024-07-24 01:54 am E 2.9 4.1----30.17- 79.7- 77.2-- 3.25
2024-07-24 01:48 amENE 2.9 4.1----30.17- 79.5- 77.0-- 3.18
2024-07-24 01:42 amENE 4.1 5.1----30.17- 79.3- 76.8-- 3.15
2024-07-24 01:36 amENE 4.1 5.1----30.17- 79.3- 76.8-- 3.12
2024-07-24 01:30 amENE 4.1 6.0----30.17- 79.2- 76.6-- 3.05
2024-07-24 01:24 am NE 4.1 5.1----30.17- 79.3- 76.8-- 2.99
2024-07-24 01:18 amENE 4.1 5.1----30.17- 79.2- 76.8-- 2.92
2024-07-24 01:12 amENE 4.1 4.1----30.18- 79.2- 76.6-- 2.85
2024-07-24 01:06 amENE 1.9 2.9----30.18- 79.0- 76.5-- 2.79
2024-07-24 01:00 amENE 1.9 2.9----30.18+0.01 78.6- 76.3-- 2.72
2024-07-24 12:54 amENE 1.9 2.9----30.19- 78.8- 76.5-- 2.66
2024-07-24 12:48 am E 2.9 4.1----30.19- 78.6- 76.3-- 2.59
2024-07-24 12:42 am E 2.9 4.1----30.19- 78.6- 76.3-- 2.53
2024-07-24 12:36 am E 4.1 5.1----30.19- 78.8- 76.3-- 2.43
2024-07-24 12:30 amENE 2.9 5.1----30.19- 79.2- 76.8-- 2.36
2024-07-24 12:24 amENE 4.1 5.1----30.19- 78.8- 76.3-- 2.30
2024-07-24 12:18 amENE 5.1 6.0----30.19- 78.4- 75.9-- 2.20
2024-07-24 12:12 amENE 5.1 6.0----30.20- 78.6- 75.9-- 2.13
2024-07-24 12:06 am NE 5.1 6.0----30.20- 78.6- 76.1-- 2.07
2024-07-24 12:00 amENE 4.1 5.1----30.20+0.03 79.0- 76.3-- 2.00
2024-07-23 11:54 pm NE 4.1 6.0----30.20- 78.8- 76.1-- 1.94
2024-07-23 11:48 pm NE 5.1 6.0----30.20- 78.8- 76.1-- 1.84
2024-07-23 11:42 pmNNE 5.1 6.0----30.20- 78.8- 76.1-- 1.77
2024-07-23 11:36 pm NE 5.1 5.1----30.20- 78.4- 75.9-- 1.71
2024-07-23 11:30 pm NE 5.1 6.0----30.20- 78.6- 75.9-- 1.64
2024-07-23 11:24 pmNNE 6.0 6.0----30.20- 78.3- 75.7-- 1.61
2024-07-23 11:18 pm NE 6.0 7.0----30.20- 78.4- 75.7-- 1.54
2024-07-23 11:12 pmNNE 6.0 7.0----30.20- 78.6- 75.7-- 1.48
2024-07-23 11:06 pm NE 6.0 7.0----30.20- 78.4- 75.4-- 1.41
2024-07-23 11:00 pm NE 7.0 8.0----30.20+0.08 78.6- 75.4-- 1.38
2024-07-23 10:54 pm NE 7.0 8.0----30.20- 78.8- 75.4-- 1.35
2024-07-23 10:48 pm NE 6.0 7.0----30.20- 79.5- 75.9-- 1.28
2024-07-23 10:42 pm NE 1.9 2.9----30.19- 79.9- 76.3-- 1.25
2024-07-23 10:36 pm- 0.0 1.0----30.19- 79.5- 75.9-- 1.18
2024-07-23 10:30 pm W 1.0 2.9----30.19- 79.3- 75.9-- 1.18
2024-07-23 10:24 pm W 2.9 4.1----30.19- 79.0- 75.4-- 1.15
2024-07-23 10:18 pm W 2.9 5.1----30.18- 78.8- 75.0-- 1.12
2024-07-23 10:12 pm W 2.9 5.1----30.18- 78.4- 74.7-- 1.12
2024-07-23 10:06 pm SW 2.9 5.1----30.18- 78.4- 74.5-- 1.12
2024-07-23 10:00 pmWSW 2.9 5.1----30.17+0.08 78.4- 74.7-- 1.12
2024-07-23 09:54 pm SW 5.1 7.0----30.17- 78.4- 74.8-- 1.12
2024-07-23 09:48 pm SW 6.0 7.0----30.16- 78.4- 74.8-- 1.15
2024-07-23 09:42 pmSSW 6.0 8.0----30.17- 78.4- 75.0-- 1.15
2024-07-23 09:36 pmSSW 7.0 8.9----30.17- 78.3- 75.2-- 1.18
2024-07-23 09:30 pmSSW 8.0 11.1----30.17- 78.1- 75.4-- 1.21
2024-07-23 09:24 pm S 8.0 11.1----30.17- 78.3- 75.9-- 1.21
2024-07-23 09:18 pm SE 6.0 8.0----30.17- 77.9- 75.6-- 1.21
2024-07-23 09:12 pmSSE 6.0 8.0----30.17- 77.5- 75.4-- 1.25
2024-07-23 09:06 pm SE 8.0 11.1----30.17- 77.2- 74.8-- 1.28
2024-07-23 09:00 pmESE 13.0 14.0----30.17+0.10 76.5- 74.3---
2024-07-23 08:54 pmESE 15.0 19.0----30.17- 76.6- 74.3-- 1.28
2024-07-23 08:48 pm SE 13.0 21.0----30.17- 78.3- 74.8-- 1.28
2024-07-23 08:42 pmNNE 7.0 14.0----30.16- 79.5- 75.4-- 1.28
2024-07-23 08:36 pmNNE 8.0 12.0----30.15- 80.1- 75.7-- 1.31
2024-07-23 08:30 pmNNE 12.0 14.0----30.14- 80.2- 75.7-- 1.35
2024-07-23 08:24 pmNNE 11.1 14.0----30.14- 80.4- 75.6-- 1.38
2024-07-23 08:18 pmNNE 12.0 14.0----30.14- 81.3- 76.6-- 1.44
2024-07-23 08:12 pm N 7.0 8.9----30.13- 82.4- 77.5-- 1.48
2024-07-23 08:06 pm N 5.1 7.0----30.13- 82.6- 77.4-- 1.51
2024-07-23 08:00 pm N 4.1 7.0----30.13+0.04 82.8- 77.4-- 1.54
2024-07-23 07:54 pm N 2.9 5.1----30.12- 82.4- 77.4-- 1.61